Home > Weather > New Orleans > Past weeks

Flag for U.S.A. Weather for the Past 2 Weeks in New Orleans, Louisiana, U.S.A.

Now
62 °F

Clear.


Feels Like: 62 °F
Forecast: 56 / 73 °F
Wind: 14 mph from Southwest

Location: Lakefront Airport

Current Time: Feb 11, 2016 at 7:49:22 PM

Latest Report: Feb 11, 2016 at 6:53 PM


Visibility: 10 mi

Pressure: 30.17 "Hg

Humidity: 73%

Dew point: 53 °F

Location of New OrleansLocation

Historic Weather in New Orleans — Graph

°F

New Orleans Temperature Yesterday

Maximum temperature yesterday: 53 °F (at 3:53 PM)
Minimum temperature yesterday: 42 °F (at 5:53 AM)
Average temperature yesterday: 48 °F

High & Low Weather Summary for the Past Weeks

 TemperatureHumidityPressure
High77 °F (Feb 2, 11:53 AM)100% (Feb 1, 1:53 AM)30.51 "Hg (Feb 1, 1:53 AM)
Low41 °F (Feb 5, 5:53 AM)31% (Feb 6, 1:53 PM)29.75 "Hg (Feb 2, 2:53 PM)
Average55 °F65%30.11 "Hg
* Reported Jan 27 5:53 PM — Feb 11 5:53 PM, New Orleans, Weather by CustomWeather, © 2016

Note: Actual official high and low records may vary slightly from our data, if they occured in-between our weather recording intervals... More about our weather records

Advertising

New Orleans Weather History for the Previous 24 Hours

 ConditionsComfort  
Time TempWeatherWind HumidityBarometerVisibility
5:53 PM
Thu, Feb 11
63 °FClear.17 mph65%30.14 "Hg10 mi
4:53 PM65 °FSunny.20 mph63%30.13 "Hg10 mi
2:53 PM66 °FSunny.14 mph59%30.11 "Hg10 mi
1:53 PM65 °FSunny.17 mph63%30.12 "Hg10 mi
12:53 PM67 °FSunny.21 mph59%30.15 "Hg10 mi
11:53 AM65 °FSunny.16 mph63%30.19 "Hg10 mi
10:53 AM64 °FSunny.18 mph68%30.21 "Hg10 mi
9:53 AM62 °FSunny.15 mph73%30.22 "Hg10 mi
8:53 AM60 °FSunny.17 mph72%30.21 "Hg10 mi
7:53 AM54 °FSunny.13 mph80%30.21 "Hg10 mi
6:53 AM51 °FSunny.12 mph83%30.20 "Hg10 mi
5:53 AM51 °FClear.13 mph77%30.19 "Hg10 mi
4:53 AM49 °FClear.10 mph80%30.19 "Hg10 mi
3:53 AM48 °FClear.10 mph80%30.19 "Hg10 mi
2:53 AM49 °FClear.12 mph74%30.19 "Hg10 mi
1:53 AM48 °FClear.12 mph71%30.20 "Hg10 mi
12:53 AM48 °FClear.14 mph68%30.21 "Hg10 mi
11:53 PM
Wed, Feb 10
47 °FClear.14 mph61%30.21 "Hg10 mi
10:53 PM48 °FClear.14 mph56%30.24 "Hg10 mi
9:53 PM48 °FClear.16 mph56%30.24 "Hg10 mi
8:53 PM49 °FClear.17 mph61%30.24 "Hg10 mi
7:53 PM50 °FClear.10 mph59%30.24 "Hg10 mi
Weather by CustomWeather, © 2016

See weather overviewHow to use our weather pages